Location: Meriden
(44.0740°N, 93.3870°W)
Time: 14:42:55
(UTC-05:00)

Amateur Radio Satellites - All Passes

Search period start: 18 September 2014 14:12
Search period end: 19 September 2014 14:12
Location: Meriden, 44.0740°N, 93.3870°W

Satellite Date Start Highest point End Downlink Frequencies (MHz)
Time Altitude Azimuth
Uribyol 2 18 Sep 14:12:56 14:18:01 62° 72° (ENE) 14:23:09 436.500 FM
TMSAT-1 18 Sep 14:27:18 14:31:49 30° 65° (ENE) 14:36:20 436.925 FM
Oscar 19 18 Sep 14:28:37 14:33:36 46° 261° (W) 14:38:37 437.125 CW, 437.150 USB
RS-15 18 Sep 14:34:53 14:45:53 72° 242° (WSW) 14:57:22 29.354 - 29.394 USB, Beacon 29.352 USB
Sapphire 18 Sep 14:35:25 14:40:09 30° 313° (NW) 14:44:56 437.095 MHz 1200 baud AX-25 AFSK
JAS-1B 18 Sep 14:39:20 14:48:05 79° 256° (WSW) 14:55:23 435.800 - 435.900 CW/SSB
AO-7 18 Sep 14:41:04 14:47:10 24° 50° (NE) 14:53:16 29.400 - 29.500 MHz
AO-27 18 Sep 14:42:59 14:48:08 76° 257° (WSW) 14:53:21 436.795 MHz FM
PCSat 18 Sep 15:03:50 15:07:47 20° 320° (NW) 15:11:44 145.825 MHz
Uosat F 18 Sep 15:04:17 15:06:13 12° 56° (ENE) 15:08:09 435.120 FM
Oscar 16 18 Sep 15:08:43 15:12:32 21° 268° (W) 15:16:24 437.025 USB, Beacon 2401.1428
Gurwin Techsat 1B 18 Sep 15:28:19 15:33:34 63° 259° (WSW) 15:38:52 435.225 FM
AO-Echo 18 Sep 15:32:05 15:35:48 23° 266° (W) 15:39:30 ?
ITAMSAT 1 18 Sep 15:49:32 15:53:18 20° 268° (W) 15:57:06 435.822 SSB
Uribyol 2 18 Sep 15:54:33 15:57:56 17° 269° (W) 16:01:20 436.500 FM
TMSAT-1 18 Sep 16:06:40 16:11:35 39° 263° (W) 16:16:33 436.925 FM
AO-7 18 Sep 16:30:36 16:38:56 89° 71° (ENE) 16:47:17 29.400 - 29.500 MHz
JAS-1B 18 Sep 16:34:41 16:39:21 16° 271° (W) 16:43:42 435.800 - 435.900 CW/SSB
Uosat F 18 Sep 16:39:13 16:44:12 85° 75° (ENE) 16:49:14 435.120 FM
RS-15 18 Sep 16:50:02 16:56:12 17° 263° (W) 17:02:32 29.354 - 29.394 USB, Beacon 29.352 USB
JAS-2 18 Sep 16:50:17 16:53:36 17° 60° (ENE) 16:56:55 435.800 - 435.900 CW/SSB, 435.910 FM
Saudisat 1A 18 Sep 16:57:24 16:59:39 14° 109° (ESE) 17:01:55 436.775 MHz
Hamsat 18 Sep 17:00:24 17:02:51 15° 62° (ENE) 17:05:18 145.90 MHz
OPAL 18 Sep 17:35:07 17:39:54 37° 99° (E) 17:44:37 ?
MaSat-1 18 Sep 18:02:13 18:05:57 35° 54° (NE) 18:09:10 437.345 MHz
Uosat F 18 Sep 18:21:53 18:23:39 12° 272° (W) 18:25:24 435.120 FM
AO-7 18 Sep 18:27:01 18:32:43 20° 270° (W) 18:38:27 29.400 - 29.500 MHz
JAS-2 18 Sep 18:33:00 18:38:14 64° 258° (WSW) 18:43:24 435.800 - 435.900 CW/SSB, 435.910 FM
Hamsat 18 Sep 18:34:01 18:38:19 61° 260° (W) 18:42:39 145.90 MHz
Saudisat 1A 18 Sep 18:34:17 18:38:40 70° 306° (NW) 18:43:06 436.775 MHz
OPAL 18 Sep 19:14:10 19:18:40 31° 297° (WNW) 19:23:07 ?
SO-67 18 Sep 19:16:31 19:19:54 54° 74° (ENE) 19:23:18 435.3500 MHz FM
KITSAT 1 18 Sep 19:19:00 19:25:59 34° 108° (ESE) 19:32:59 435.175 FM
MaSat-1 18 Sep 19:39:50 19:42:17 17° 258° (WSW) 19:44:30 437.345 MHz
STRAND 1 18 Sep 19:52:41 19:57:44 55° 101° (E) 20:02:45 ?
Sapphire 18 Sep 19:55:53 19:58:20 13° 32° (NNE) 20:00:47 437.095 MHz 1200 baud AX-25 AFSK
Saudisat 1A 18 Sep 20:16:47 20:19:04 14° 327° (NNW) 20:21:21 436.775 MHz
PCSat 18 Sep 20:22:17 20:26:07 19° 39° (NE) 20:29:55 145.825 MHz
UKube-1 18 Sep 20:22:39 20:23:45 11° 58° (ENE) 20:24:51 145.840 MHz, 145.915 MHz
HO-68 18 Sep 20:25:44 20:32:20 43° 63° (ENE) 20:38:57 435.675 MHz FM
KITSAT 1 18 Sep 21:12:57 21:20:57 62° 308° (NW) 21:28:59 435.175 FM
FUNcube-1 18 Sep 21:28:18 21:30:56 16° 62° (ENE) 21:33:36 145.950 - 145.970 MHz USB
STRAND 1 18 Sep 21:32:44 21:36:32 21° 298° (WNW) 21:40:19 ?
Sapphire 18 Sep 21:37:43 21:43:03 53° 54° (NE) 21:48:21 437.095 MHz 1200 baud AX-25 AFSK
Oscar 11 18 Sep 21:39:25 21:43:34 44° 71° (ENE) 21:47:44 145.825 FM, Beacon 2401.500 USB
UKube-1 18 Sep 21:54:56 21:59:16 87° 256° (WSW) 22:03:38 145.840 MHz, 145.915 MHz
PCSat 18 Sep 22:04:50 22:10:18 90° 242° (WSW) 22:15:43 145.825 MHz
HO-68 18 Sep 22:13:24 22:20:02 41° 262° (W) 22:26:43 435.675 MHz FM
SO-50 18 Sep 22:15:23 22:18:28 19° 111° (ESE) 22:21:38 436.795 FM
FUNcube-1 18 Sep 23:02:29 23:06:49 60° 260° (W) 23:11:18 145.950 - 145.970 MHz USB
KITSAT 1 18 Sep 23:12:11 23:18:09 22° 333° (NNW) 23:24:08 435.175 FM
Oscar 11 18 Sep 23:16:57 23:19:58 18° 268° (W) 23:23:00 145.825 FM, Beacon 2401.500 USB
Sapphire 18 Sep 23:21:49 23:26:07 24° 252° (WSW) 23:30:23 437.095 MHz 1200 baud AX-25 AFSK
PCSat 18 Sep 23:50:30 23:52:54 13° 257° (WSW) 23:55:18 145.825 MHz
SO-50 18 Sep 23:54:11 23:58:36 55° 309° (NW) 00:03:09 436.795 FM
UOSAT-12 18 Sep 23:58:20 00:01:24 18° 110° (ESE) 00:04:31 437.025 FM, 437.400 FM
AO-40 19 Sep 00:50:22 02:09:40 17° 228° (SW) 04:16:30 Beacon 2401.320
KITSAT 1 19 Sep 01:12:59 01:17:15 15° 4° (N) 01:21:31 435.175 FM
Saudisat 1A 19 Sep 01:20:44 01:24:12 22° 40° (NE) 01:27:39 436.775 MHz
UOSAT-12 19 Sep 01:36:29 01:41:04 61° 308° (NW) 01:45:46 437.025 FM, 437.400 FM
SO-50 19 Sep 01:38:14 01:40:13 13° 331° (NNW) 01:42:14 436.795 FM
Oscar 16 19 Sep 01:39:18 01:42:33 17° 90° (E) 01:45:47 437.025 USB, Beacon 2401.1428
AO-Echo 19 Sep 01:59:59 02:01:29 11° 88° (E) 02:02:59 ?
ITAMSAT 1 19 Sep 02:20:59 02:24:19 17° 91° (E) 02:27:38 435.822 SSB
Oscar 10/S400 19 Sep 02:22:51 03:28:55 34° 230° (SW) 07:42:14 145.825 - 145.975 CW/USB, Beacon 145.810 USB
JAS-1B 19 Sep 02:24:32 02:28:52 22° 92° (E) 02:33:08 435.800 - 435.900 CW/SSB
Uribyol 2 19 Sep 02:25:04 02:28:50 20° 92° (E) 02:32:35 436.500 FM
Oscar 19 19 Sep 02:38:31 02:43:37 56° 101° (E) 02:48:40 437.125 CW, 437.150 USB
AO-27 19 Sep 02:54:45 02:59:30 35° 97° (E) 03:04:14 436.795 MHz FM
RS-15 19 Sep 02:55:05 03:00:09 14° 96° (E) 03:05:10 29.354 - 29.394 USB, Beacon 29.352 USB
Saudisat 1A 19 Sep 02:59:46 03:04:07 57° 240° (WSW) 03:08:25 436.775 MHz
ISS 19 Sep 03:01:48 03:04:32 24° 136° (SE) 03:07:17 145.800 FM
KITSAT 1 19 Sep 03:09:20 03:16:01 27° 34° (NNE) 03:22:38 435.175 FM
OPAL 19 Sep 03:16:13 03:18:21 13° 53° (NE) 03:20:30 ?
Oscar 16 19 Sep 03:17:13 03:22:22 65° 288° (WNW) 03:27:28 437.025 USB, Beacon 2401.1428
UOSAT-12 19 Sep 03:19:47 03:22:12 14° 329° (NNW) 03:24:38 437.025 FM, 437.400 FM
AO-Echo 19 Sep 03:36:00 03:40:50 84° 285° (WNW) 03:45:48 ?
Gurwin Techsat 1B 19 Sep 03:43:03 03:48:11 47° 99° (E) 03:53:16 435.225 FM
ITAMSAT 1 19 Sep 03:59:05 04:04:16 65° 288° (WNW) 04:09:25 435.822 SSB
Uribyol 2 19 Sep 04:03:32 04:08:39 56° 289° (WNW) 04:13:45 436.500 FM
JAS-1B 19 Sep 04:14:24 04:20:01 51° 291° (WNW) 04:25:29 435.800 - 435.900 CW/SSB
Oscar 19 19 Sep 04:18:46 04:22:33 21° 298° (WNW) 04:26:19 437.125 CW, 437.150 USB
TMSAT-1 19 Sep 04:20:27 04:25:47 75° 103° (ESE) 04:31:05 436.925 FM
AO-7 19 Sep 04:31:18 04:38:03 27° 94° (E) 04:44:46 29.400 - 29.500 MHz
AO-27 19 Sep 04:34:21 04:38:57 32° 294° (WNW) 04:43:32 436.795 MHz FM
ISS 19 Sep 04:37:48 04:41:04 53° 334° (NNW) 04:44:21 145.800 FM
Uosat F 19 Sep 04:46:06 04:50:05 23° 94° (E) 04:54:02 435.120 FM
OPAL 19 Sep 04:51:12 04:56:22 78° 72° (ENE) 05:01:37 ?
RS-15 19 Sep 04:59:20 05:10:13 68° 117° (ESE) 05:20:59 29.354 - 29.394 USB, Beacon 29.352 USB
KITSAT 1 19 Sep 05:04:29 05:12:38 85° 57° (ENE) 05:20:42 435.175 FM
AO-Echo 19 Sep 05:17:22 05:18:53 11° 302° (WNW) 05:20:25 ?
Gurwin Techsat 1B 19 Sep 05:23:35 05:27:52 26° 297° (WNW) 05:32:09 435.225 FM
STRAND 1 19 Sep 05:34:23 05:36:45 13° 57° (ENE) 05:39:08 ?
JAS-2 19 Sep 05:40:12 05:43:41 15° 90° (E) 05:47:22 435.800 - 435.900 CW/SSB, 435.910 FM
TMSAT-1 19 Sep 06:01:48 06:05:05 17° 301° (WNW) 06:08:23 436.925 FM
ISS 19 Sep 06:15:35 06:18:18 22° 354° (N) 06:21:01 145.800 FM
Hamsat 19 Sep 06:19:01 06:22:18 21° 93° (E) 06:25:32 145.90 MHz
AO-7 19 Sep 06:23:15 06:31:29 71° 293° (WNW) 06:39:42 29.400 - 29.500 MHz
Uosat F 19 Sep 06:24:17 06:29:03 45° 291° (WNW) 06:33:49 435.120 FM
OPAL 19 Sep 06:33:09 06:35:50 14° 269° (W) 06:38:31 ?
SO-50 19 Sep 06:44:04 06:48:20 31° 44° (NE) 06:52:39 436.795 FM
KITSAT 1 19 Sep 07:01:16 07:07:03 22° 257° (WSW) 07:12:49 435.175 FM
STRAND 1 19 Sep 07:10:06 07:15:12 90° 249° (WSW) 07:20:20 ?
RS-15 19 Sep 07:12:56 07:23:14 44° 323° (NW) 07:33:36 29.354 - 29.394 USB, Beacon 29.352 USB
JAS-2 19 Sep 07:23:20 07:29:17 87° 285° (WNW) 07:36:02 435.800 - 435.900 CW/SSB, 435.910 FM
MaSat-1 19 Sep 07:50:41 07:53:24 15° 101° (ESE) 07:56:06 437.345 MHz
ISS 19 Sep 07:52:50 07:55:44 27° 14° (NNE) 07:58:38 145.800 FM
Hamsat 19 Sep 07:54:28 07:58:22 35° 290° (WNW) 08:02:13 145.90 MHz
SO-67 19 Sep 08:11:33 08:14:57 53° 100° (E) 08:18:19 435.3500 MHz FM
AO-7 19 Sep 08:17:42 08:22:53 19° 314° (NW) 08:28:03 29.400 - 29.500 MHz
SO-50 19 Sep 08:24:30 08:29:01 42° 243° (WSW) 08:33:35 436.795 FM
UOSAT-12 19 Sep 08:25:04 08:29:09 28° 42° (NE) 08:33:11 437.025 FM, 437.400 FM
STRAND 1 19 Sep 08:53:42 08:55:06 11° 273° (W) 08:56:30 ?
JAS-2 19 Sep 09:10:21 09:13:44 16° 302° (WNW) 09:17:19 435.800 - 435.900 CW/SSB, 435.910 FM
MaSat-1 19 Sep 09:24:33 09:29:35 78° 298° (WNW) 09:34:32 437.345 MHz
ISS 19 Sep 09:29:24 09:32:45 83° 213° (SSW) 09:36:04 145.800 FM
RS-15 19 Sep 09:30:49 09:39:25 25° 356° (N) 09:48:07 29.354 - 29.394 USB, Beacon 29.352 USB
HO-68 19 Sep 09:38:55 09:45:30 37° 97° (E) 09:52:01 435.675 MHz FM
UKube-1 19 Sep 09:43:11 09:45:34 14° 91° (E) 09:47:56 145.840 MHz, 145.915 MHz
SO-67 19 Sep 09:46:45 09:47:31 11° 296° (WNW) 09:48:17 435.3500 MHz FM
UOSAT-12 19 Sep 10:04:58 10:09:30 47° 242° (WSW) 10:13:57 437.025 FM, 437.400 FM
FUNcube-1 19 Sep 10:50:34 10:54:24 25° 94° (E) 10:58:11 145.950 - 145.970 MHz USB
Oscar 11 19 Sep 11:01:25 11:05:48 75° 102° (ESE) 11:10:07 145.825 FM, Beacon 2401.500 USB
MaSat-1 19 Sep 11:04:23 11:07:06 15° 316° (NW) 11:09:46 437.345 MHz
ISS 19 Sep 11:07:48 11:08:58 11° 229° (SW) 11:10:07 145.800 FM
UKube-1 19 Sep 11:17:50 11:22:07 57° 288° (WNW) 11:26:23 145.840 MHz, 145.915 MHz
HO-68 19 Sep 11:26:31 11:33:18 47° 296° (WNW) 11:40:04 435.675 MHz FM
RS-15 19 Sep 11:46:09 11:56:06 36° 31° (NNE) 12:06:18 29.354 - 29.394 USB, Beacon 29.352 USB
Oscar 19 19 Sep 12:20:46 12:23:22 14° 57° (ENE) 12:25:59 437.125 CW, 437.150 USB
Sapphire 19 Sep 12:21:21 12:26:12 35° 111° (ESE) 12:31:05 437.095 MHz 1200 baud AX-25 AFSK
FUNcube-1 19 Sep 12:26:38 12:30:51 36° 291° (WNW) 12:35:02 145.950 - 145.970 MHz USB
Oscar 11 19 Sep 12:39:35 12:41:22 12° 300° (WNW) 12:43:10 145.825 FM, Beacon 2401.500 USB
PCSat 19 Sep 12:47:48 12:53:08 63° 117° (ESE) 12:58:30 145.825 MHz
Oscar 16 19 Sep 12:57:18 13:01:43 29° 65° (ENE) 13:06:09 437.025 USB, Beacon 2401.1428
JAS-1B 19 Sep 13:09:51 13:16:51 32° 63° (ENE) 13:22:55 435.800 - 435.900 CW/SSB
AO-Echo 19 Sep 13:13:54 13:17:05 18° 62° (ENE) 13:20:15 ?
HO-68 19 Sep 13:18:26 13:19:16 10° 317° (NW) 13:20:07 435.675 MHz FM
Gurwin Techsat 1B 19 Sep 13:29:27 13:31:46 13° 56° (ENE) 13:34:05 435.225 FM
ITAMSAT 1 19 Sep 13:40:07 13:44:35 30° 65° (ENE) 13:49:03 435.822 SSB
Uribyol 2 19 Sep 13:44:10 13:48:48 35° 67° (ENE) 13:53:28 436.500 FM
AO-7 19 Sep 13:46:31 13:48:44 11° 37° (NE) 13:50:56 29.400 - 29.500 MHz
Oscar 19 19 Sep 13:56:46 14:01:58 89° 256° (WSW) 14:07:13 437.125 CW, 437.150 USB
TMSAT-1 19 Sep 14:05:00 14:08:41 20° 61° (ENE) 14:12:23 436.925 FM
